This demonstration page uses our WeatherBlox Daily Observations layout. Learn more.

Left ArrowRight Arrow

36.17497, -115.13722

Hourly Observations for May 15, 2017

Temp ( °F °C ) Dew Point ( °F °C ) Humidity (%) Winds ( mph kmh ) Pressure ( in mb ) Visibility ( mi km ) Precip ( " mm )
12:53 am 00:53 Clear 68 20 26 -3.3 21 21 SSW 6 9 29.67 1005 10 16 0.00 0.00
1:53 am 01:53 Clear 66 18.9 29 -1.7 25 25 SSE 9 15 29.68 1005 10 16 0.00 0.00
2:53 am 02:53 Clear 63 17.2 30 -1.1 29 29 SSE 8 13 29.69 1005 10 16 0.00 0.00
3:53 am 03:53 Clear 62 16.7 30 -1.1 30 30 SSE 7 11 29.69 1005 10 16 0.00 0.00
4:53 am 04:53 Clear 61 16.1 29 -1.7 30 30 S 10 17 29.68 1005 10 16 0.00 0.00
5:53 am 05:53 Mostly Cloudy 61 16.1 28 -2.2 29 29 S 9 15 29.69 1005 10 16 0.00 0.00
6:53 am 06:53 Partly Cloudy 61 16.1 28 -2.2 29 29 SSW 14 22 29.70 1006 10 16 0.00 0.00
7:53 am 07:53 Mostly Cloudy 63 17.2 29 -1.7 28 28 SSW 14 22 29.70 1006 10 16 0.00 0.00
8:53 am 08:53 Sunny 65 18.3 29 -1.7 26 26 S 15 24 29.72 1006 10 16 0.00 0.00
9:53 am 09:53 Partly Cloudy 68 20 26 -3.3 21 21 S 14 22 29.71 1006 10 16 0.00 0.00
10:53 am 10:53 Sunny 69 20.6 20 -6.7 15 15 SSW 10 17 29.72 1006 10 16 0.00 0.00
11:53 am 11:53 Sunny 71 21.7 22 -5.6 16 16 S 15 24 29.71 1006 10 16 0.00 0.00
12:53 pm 12:53 Sunny 73 22.8 20 -6.7 13 13 SSW 21 33 29.70 1006 10 16 0.00 0.00
1:53 pm 13:53 Sunny 75 23.9 20 -6.7 12 12 WSW 17 28 29.68 1005 10 16 0.00 0.00
2:53 pm 14:53 Sunny 75 23.9 18 -7.8 11 11 WSW 18 30 29.68 1005 10 16 0.00 0.00
3:53 pm 15:53 Sunny 74 23.3 22 -5.6 14 14 WSW 18 30 29.67 1005 10 16 0.00 0.00
4:53 pm 16:53 Sunny 73 22.8 20 -6.7 13 13 W 17 28 29.68 1005 10 16 0.00 0.00
5:53 pm 17:53 Sunny 71 21.7 20 -6.7 14 14 SW 13 20 29.70 1006 10 16 0.00 0.00
6:53 pm 18:53 Sunny 70 21.1 20 -6.7 15 15 WSW 16 26 29.71 1006 10 16 0.00 0.00
7:53 pm 19:53 Cloudy 67 19.4 26 -3.3 21 21 W 16 26 29.73 1007 10 16 0.00 0.00
8:53 pm 20:53 Partly Cloudy 65 18.3 27 -2.8 24 24 WSW 10 17 29.76 1008 10 16 0.00 0.00
9:53 pm 21:53 Mostly Clear 65 18.3 27 -2.8 24 24 WSW 9 15 29.76 1008 10 16 0.00 0.00
10:53 pm 22:53 Clear 64 17.8 28 -2.2 26 26 SW 7 11 29.78 1008 10 16 0.00 0.00
11:53 pm 23:53 Cloudy 64 17.8 29 -1.7 27 27 SW 10 17 29.78 1008 10 16 0.00 0.00

Powered by AerisWeather